Location: Bh?mavarapp?du
(16.7041°N, 80.6518°E)
Time: 06:08:43
(UTC+00:00)

GPS 2-17 Rocket1 - Pass Details

Date: 21 April 2021
Orbit: 571 x 658 km, 20.3° (Epoch: 05 May)

Event Time Altitude Azimuth Distance (km) Brightness Sun altitude
Exits shadow 22:45:01 68° 199° (SSW) 610 2.8 -22.0°
Maximum altitude 22:45:19 71° 165° (SSE) 597 2.8 -22.0°
Drops below altitude 10° 22:49:38 10° 81° (E) 1,860 6.6 -21.0°
Sets 22:51:57 0° 79° (E) 2,763 7.9 -20.5°
